COSMOS 2251 DEB, 34682

Orbit data source: Space-Track

COSMOS 2251 DEB, 34682 is space debris in LEO originally from a launch on Wed, 16 Jun 1993 UTC launched from the Plesetsk Missile And Space Complex (PKMTR). The debris from Iridium 33, an American commercial communications satellite, has been tracked extensively since its accidental collision with the defunct Russian satellite Cosmos 2251 in 2009. This event, occurring at high speed in low Earth orbit (LEO), generated thousands of pieces of space debris, significantly increasing the risk of further collisions. The Iridium 33 debris cloud has impacted space traffic management and orbital debris mitigation strategies, making it a subject of ongoing study in space situational awareness.

Loading next visibility...
Identifier
34682, 1993-036YC
Orbit
LEO
Country
Flag of CISCIS
Related business
Manufacturer
Unknown
Mission
Spacecraft
Bus & Motor
Unknown
Mass
Unknown
Launch date (UTC)
1993-06-16 (33 years ago)
Launch vehicle
Unknown
Launch site
Plesetsk Missile And Space Complex (PKMTR)
Object type
Payload
Rocket body
Debris
Shape & HBR
Unknown shape, 0.1 m
Radar Cross Section
Small (<0.1 m²)

Expand to show TLE details & history
Last TLE update: 11 hours ago

TLE from 11 hours ago
0 COSMOS 2251 DEB
1 34682U 93036YC  26034.29002368  .00004352  00000-0  92378-3 0  9995
2 34682  74.0415 342.8707 0016103 100.4758  49.7092 14.59347906894520
Epoch: 2026-02-03T06:57Z
TLE epoch observation values (Epoch: 2026-02-03T06:57:38.045Z)
Latitude
28.47581°
Longitude
-83.88555°
Altitude
691.146 km
Speed
7.517 km/s
True Right ascension
10h 15m 59s
True Declination
28° 19' 50"
Sunlit
Object was in full shadow at epoch
Visualization orbit readout
Latitude
Unknown
Longitude
Unknown
Altitude
Unknown
Speed
Unknown
Apparent Right ascension
Unknown
Apparent Declination
Unknown
Sunlit
N/A
Visualization observer readout
Local Sidereal Time
19:36:34
Azimuth
Unknown
Elevation
Unknown
Doppler factor
Unknown
Orbital elements
Apogee altitude
704.265 km
Perigee altitude
681.492 km
Semi-major axis
7,071.015 km
Eccentricity
0.00161
Inclination
74.0415°
RAAN
342.8707°
Arg. of periapsis
100.4758°
True anomaly
49.85014°
Mean anomaly
49.7092°
Eccentric anomaly
49.77965°
Mean motion
3.65023 °/min
Orbital period
98.62 mins
BSTAR
0.00092378
Loading maneuver chart data...
Computing Atmospheric mass density...
Loading historical data...
Loading historical data...
Loading historical data...
Loading historical data...
Loading historical data...
Loading historical data...
Loading historical data...

Documentation

Showing up to 5 results
|